Weather in Yarmouth

Canada     43°50′18″N   66°07′06″W
temp.,
°C
wind,
m/s
gust,
m/s
humid.,
%
clouds,
%
prec.,
mm/h
press.,
hPa
HPBL,
m
22 april, thu
thu2200:00+9sse81898100 1.8 1000534
03:00+8sse61299100 2.2 995311
06:00+7ssw61398100 0.3 994512
09:00+4wsw91289100 0.3 9941024
12:00+3wsw111677100 0.3 9961365
15:00+3w121769100 0.5 9971733
18:00+4w121658100 0.2 9992180
21:00+3w111660100 0.4 10001926
23 april, fri
fri2300:00+3w121659100 0.2 10011882
03:00+4w131761100 0.3 10001799
06:00+4w13176698 0.1 10011633
09:00+5w131668100 0.2 10021760
12:00+6w121566100 0.3 10021701
15:00+8w11165917 0.4 10031733
18:00+8w1016625 0.0 10031561
21:00+7w814665 0.0 1006787
24 april, sat
sat2400:00+7w915720 0.0 1007749
03:00+7w916780 0.0 1007634
06:00+7w816840 0.0 1008512
09:00+9w816770 0.0 1009602
12:00+11w712654 0.0 1010772
15:00+12w6106428 0.0 1012858
18:00+10wsw611726 0.0 1012376
21:00+8wsw513795 0.0 1014253
25 april, sun
sun2500:00+6w239350 0.0 101643
03:00+6sse2290100 0.0 101513
06:00+6sse3694100 0.0 101598
09:00+8sse5883100 0.0 1015201
12:00+10sse5970100 0.0 1014258
15:00+9ese51080100 0.2 1012189
18:00+10ese71478100 0.1 1008470
21:00+9ese81696100 3.8 1005731
26 april, mon
mon2600:00+10e91896100 9.3 998660
03:00+8se4799100 11.9 992290
06:00+8wnw111794100 0.1 994790
09:00+6w121689100 0.4 998939
12:00+6w111684100 0.0 1001942
15:00+6w111588100 0.3 1003972
18:00+6w101687100 1.5 10051122
21:00+7wnw91685100 3.0 10071219